Location: Cannifist
(18.2333°N, 63.0167°W)
Time: 01:44:29
(UTC+00:00)

N. Korean satellite - Pass Details

Date: 22 June 2021
Orbit: 451 x 498 km, 97.2° (Epoch: 02 August)

Event Time Altitude Azimuth Distance (km) Brightness Sun altitude
Rises 08:25:03 0° 41° (NE) 2,566 11.7 -16.0°
Reaches altitude 10° 08:28:11 10° 71° (ENE) 1,689 10.6 -15.3°
Maximum altitude 08:29:47 13° 97° (E) 1,537 9.8 -15.0°
Drops below altitude 10° 08:31:24 10° 124° (ESE) 1,692 9.6 -14.7°
Sets 08:34:32 0° 154° (SSE) 2,574 10.2 -14.0°
